Location: Eboldshausen
(51.7766°N, 10.0050°E)
Time: 17:43:49
(UTC+00:00)

SL-16 R/B - Pass Details

Date: 15 November 2025
Orbit: 985 x 1006 km, 99.8° (Epoch: 10 December)

Event Time Altitude Azimuth Distance (km) Brightness Sun altitude
Rises 16:54:40 0° 14° (NNE) 3,749 5.3 -13.1°
Reaches altitude 10° 16:57:12 10° 10° (N) 2,795 4.7 -13.4°
Maximum altitude 17:03:17 54° 296° (WNW) 1,212 3.3 -14.4°
Drops below altitude 10° 17:09:19 10° 221° (SW) 2,772 5.7 -15.3°
Sets 17:11:49 0° 217° (SW) 3,716 6.3 -15.7°
